Private Wetterstation Sandau
Wetterdaten: Mittwoch, 14.03.2012
Datum Zeit Temp. A. Feuchte A. Luftdruck Regen Wind Richtung Richtung Taupunkt Windchill
14.03.2012 00:02 7,8 C 76 % 1030,6 hPa 0,0 l/m 8,3 km/h (2 Bft) N-NW 337 3,8 C 6,4 C
14.03.2012 00:07 7,7 C 76 % 1030,6 hPa 0,0 l/m 2,2 km/h (1 Bft) NW 315 3,7 C 7,7 C
14.03.2012 00:12 7,7 C 76 % 1030,5 hPa 0,0 l/m 7,6 km/h (2 Bft) NO 45 3,7 C 6,4 C
14.03.2012 00:17 7,6 C 76 % 1030,6 hPa 0,0 l/m 7,9 km/h (2 Bft) NW 315 3,6 C 6,2 C
14.03.2012 00:22 7,7 C 76 % 1030,5 hPa 0,0 l/m 8,3 km/h (2 Bft) NW 315 3,7 C 6,2 C
14.03.2012 00:27 7,7 C 76 % 1030,5 hPa 0,0 l/m 4,3 km/h (1 Bft) NW 315 3,7 C 7,7 C
14.03.2012 00:32 7,6 C 76 % 1030,7 hPa 0,0 l/m 13,0 km/h (3 Bft) NW 315 3,6 C 5,2 C
14.03.2012 00:37 7,6 C 76 % 1030,5 hPa 0,0 l/m 10,4 km/h (2 Bft) N-NW 337 3,6 C 5,7 C
14.03.2012 00:42 7,6 C 76 % 1030,7 hPa 0,0 l/m 12,2 km/h (2 Bft) W 270 3,6 C 5,4 C
14.03.2012 00:47 7,6 C 76 % 1030,7 hPa 0,0 l/m 4,0 km/h (1 Bft) W 270 3,6 C 7,6 C
14.03.2012 00:52 7,6 C 76 % 1030,5 hPa 0,0 l/m 3,6 km/h (1 Bft) N 360 3,6 C 7,6 C
14.03.2012 00:57 7,6 C 76 % 1030,7 hPa 0,0 l/m 8,6 km/h (2 Bft) NW 315 3,6 C 6,1 C
14.03.2012 01:02 7,6 C 76 % 1030,5 hPa 0,0 l/m 10,1 km/h (2 Bft) N-NW 337 3,6 C 5,7 C
14.03.2012 01:07 7,5 C 76 % 1030,6 hPa 0,0 l/m 4,7 km/h (1 Bft) N-NW 337 3,5 C 7,0 C
14.03.2012 01:12 7,6 C 76 % 1030,7 hPa 0,0 l/m 8,6 km/h (2 Bft) W-NW 292 3,6 C 6,1 C
14.03.2012 01:17 7,5 C 76 % 1030,6 hPa 0,0 l/m 8,3 km/h (2 Bft) W-NW 292 3,5 C 6,0 C
14.03.2012 01:22 7,5 C 75 % 1030,5 hPa 0,0 l/m 6,1 km/h (2 Bft) N-NW 337 3,4 C 6,6 C
14.03.2012 01:27 7,5 C 76 % 1030,4 hPa 0,0 l/m 7,9 km/h (2 Bft) NW 315 3,5 C 6,1 C
14.03.2012 01:32 7,5 C 76 % 1030,5 hPa 0,0 l/m 4,0 km/h (1 Bft) N-NW 337 3,5 C 7,5 C
14.03.2012 01:37 7,5 C 76 % 1030,4 hPa 0,0 l/m 2,2 km/h (1 Bft) N-NW 337 3,5 C 7,5 C
14.03.2012 01:42 7,5 C 76 % 1030,5 hPa 0,0 l/m 5,4 km/h (1 Bft) W-SW 247 3,5 C 6,8 C
14.03.2012 01:47 7,5 C 76 % 1030,4 hPa 0,0 l/m 9,0 km/h (2 Bft) W-NW 292 3,5 C 5,8 C
14.03.2012 01:52 7,4 C 76 % 1030,2 hPa 0,0 l/m 5,8 km/h (2 Bft) NO 45 3,5 C 6,5 C
14.03.2012 01:57 7,4 C 76 % 1030,2 hPa 0,0 l/m 2,5 km/h (1 Bft) NW 315 3,5 C 7,4 C
14.03.2012 02:02 7,4 C 76 % 1030,3 hPa 0,0 l/m 5,4 km/h (1 Bft) W-SW 247 3,5 C 6,7 C
14.03.2012 02:07 7,4 C 76 % 1030,1 hPa 0,0 l/m 4,0 km/h (1 Bft) N-NW 337 3,5 C 7,4 C
14.03.2012 02:12 7,4 C 76 % 1030,2 hPa 0,0 l/m 11,9 km/h (2 Bft) N-NW 337 3,5 C 5,2 C
14.03.2012 02:17 7,4 C 76 % 1030,0 hPa 0,0 l/m 6,1 km/h (2 Bft) NW 315 3,5 C 6,5 C
14.03.2012 02:22 7,4 C 76 % 1030,0 hPa 0,0 l/m 9,4 km/h (2 Bft) W 270 3,5 C 5,6 C
14.03.2012 02:27 7,4 C 76 % 1030,0 hPa 0,0 l/m 11,9 km/h (2 Bft) W-NW 292 3,5 C 5,2 C
14.03.2012 02:32 7,4 C 76 % 1030,1 hPa 0,0 l/m 6,1 km/h (2 Bft) W-NW 292 3,5 C 6,5 C
14.03.2012 02:37 7,4 C 76 % 1029,9 hPa 0,0 l/m 6,5 km/h (2 Bft) NW 315 3,5 C 6,3 C
14.03.2012 02:42 7,4 C 76 % 1030,0 hPa 0,0 l/m 9,4 km/h (2 Bft) W 270 3,5 C 5,6 C
14.03.2012 02:47 7,4 C 77 % 1030,0 hPa 0,0 l/m 7,6 km/h (2 Bft) W 270 3,6 C 6,0 C
14.03.2012 02:52 7,4 C 77 % 1030,0 hPa 0,0 l/m 7,2 km/h (2 Bft) W 270 3,6 C 6,1 C
14.03.2012 02:57 7,4 C 77 % 1029,9 hPa 0,0 l/m 3,2 km/h (1 Bft) W 270 3,6 C 7,4 C
14.03.2012 03:02 7,4 C 77 % 1030,0 hPa 0,0 l/m 8,3 km/h (2 Bft) W-NW 292 3,6 C 5,9 C
14.03.2012 03:07 7,4 C 76 % 1030,1 hPa 0,0 l/m 10,4 km/h (2 Bft) W 270 3,5 C 5,4 C
14.03.2012 03:12 7,4 C 76 % 1029,9 hPa 0,0 l/m 9,4 km/h (2 Bft) W 270 3,5 C 5,6 C
14.03.2012 03:17 7,4 C 76 % 1029,8 hPa 0,0 l/m 11,2 km/h (2 Bft) W-NW 292 3,5 C 5,3 C
14.03.2012 03:22 7,4 C 76 % 1029,9 hPa 0,0 l/m 6,8 km/h (2 Bft) W-SW 247 3,5 C 6,3 C
14.03.2012 03:27 7,4 C 76 % 1029,9 hPa 0,0 l/m 6,8 km/h (2 Bft) W 270 3,5 C 6,3 C
14.03.2012 03:32 7,4 C 76 % 1029,7 hPa 0,0 l/m 9,7 km/h (2 Bft) W-SW 247 3,5 C 5,6 C
14.03.2012 03:37 7,4 C 76 % 1029,7 hPa 0,0 l/m 11,9 km/h (2 Bft) W 270 3,5 C 5,2 C
14.03.2012 03:42 7,4 C 76 % 1029,7 hPa 0,0 l/m 6,5 km/h (2 Bft) W-NW 292 3,5 C 6,3 C
14.03.2012 03:47 7,4 C 76 % 1029,7 hPa 0,0 l/m 15,8 km/h (3 Bft) W-NW 292 3,5 C 4,6 C
14.03.2012 03:52 7,4 C 76 % 1029,8 hPa 0,0 l/m 8,6 km/h (2 Bft) W 270 3,5 C 5,8 C
14.03.2012 03:57 7,4 C 76 % 1029,7 hPa 0,0 l/m 10,1 km/h (2 Bft) W-NW 292 3,5 C 5,5 C
14.03.2012 04:02 7,4 C 76 % 1029,8 hPa 0,0 l/m 7,9 km/h (2 Bft) NW 315 3,5 C 6,0 C
14.03.2012 04:07 7,4 C 76 % 1029,8 hPa 0,0 l/m 9,0 km/h (2 Bft) W-NW 292 3,5 C 5,7 C
14.03.2012 04:12 7,4 C 76 % 1029,8 hPa 0,0 l/m 18,0 km/h (3 Bft) W-NW 292 3,5 C 4,3 C
14.03.2012 04:17 7,3 C 76 % 1029,7 hPa 0,0 l/m 14,8 km/h (3 Bft) NW 315 3,4 C 4,6 C
14.03.2012 04:22 7,3 C 77 % 1029,6 hPa 0,0 l/m 6,5 km/h (2 Bft) W 270 3,5 C 6,2 C
14.03.2012 04:27 7,3 C 77 % 1029,6 hPa 0,0 l/m 10,8 km/h (2 Bft) W 270 3,5 C 5,3 C
14.03.2012 04:32 7,3 C 77 % 1029,6 hPa 0,0 l/m 7,2 km/h (2 Bft) W-NW 292 3,5 C 6,0 C
14.03.2012 04:37 7,3 C 77 % 1029,7 hPa 0,0 l/m 12,6 km/h (3 Bft) W 270 3,5 C 4,9 C
14.03.2012 04:42 7,3 C 77 % 1029,6 hPa 0,0 l/m 5,8 km/h (2 Bft) W 270 3,5 C 6,4 C
14.03.2012 04:47 7,3 C 77 % 1029,5 hPa 0,0 l/m 5,0 km/h (1 Bft) S-SW 202 3,5 C 6,7 C
14.03.2012 04:52 7,3 C 78 % 1029,5 hPa 0,0 l/m 10,1 km/h (2 Bft) W 270 3,7 C 5,4 C
14.03.2012 04:57 7,2 C 78 % 1029,5 hPa 0,0 l/m 11,2 km/h (2 Bft) W-NW 292 3,6 C 5,1 C
14.03.2012 05:02 7,2 C 78 % 1029,4 hPa 0,0 l/m 17,6 km/h (3 Bft) W 270 3,6 C 4,1 C
14.03.2012 05:07 7,2 C 78 % 1029,4 hPa 0,0 l/m 7,6 km/h (2 Bft) W-NW 292 3,6 C 5,8 C
14.03.2012 05:12 7,2 C 78 % 1029,3 hPa 0,0 l/m 5,8 km/h (2 Bft) W 270 3,6 C 6,3 C
14.03.2012 05:17 7,2 C 78 % 1029,3 hPa 0,0 l/m 14,0 km/h (3 Bft) W-NW 292 3,6 C 4,6 C
14.03.2012 05:22 7,2 C 78 % 1029,3 hPa 0,0 l/m 16,2 km/h (3 Bft) W 270 3,6 C 4,3 C
14.03.2012 05:27 7,2 C 78 % 1029,4 hPa 0,0 l/m 10,8 km/h (2 Bft) W-NW 292 3,6 C 5,1 C
14.03.2012 05:32 7,2 C 78 % 1029,4 hPa 0,0 l/m 7,6 km/h (2 Bft) W 270 3,6 C 5,8 C
14.03.2012 05:37 7,2 C 78 % 1029,5 hPa 0,0 l/m 9,0 km/h (2 Bft) W 270 3,6 C 5,5 C
14.03.2012 05:42 7,2 C 78 % 1029,6 hPa 0,0 l/m 16,6 km/h (3 Bft) W-NW 292 3,6 C 4,2 C
14.03.2012 05:47 7,3 C 78 % 1029,6 hPa 0,0 l/m 15,8 km/h (3 Bft) W-NW 292 3,7 C 4,5 C
14.03.2012 05:52 7,3 C 78 % 1029,4 hPa 0,0 l/m 10,8 km/h (2 Bft) NW 315 3,7 C 5,3 C
14.03.2012 05:57 7,3 C 78 % 1029,3 hPa 0,0 l/m 11,2 km/h (2 Bft) W 270 3,7 C 5,2 C
14.03.2012 06:02 7,3 C 78 % 1029,4 hPa 0,0 l/m 13,3 km/h (3 Bft) W-NW 292 3,7 C 4,8 C
14.03.2012 06:07 7,3 C 77 % 1029,4 hPa 0,0 l/m 10,1 km/h (2 Bft) W-SW 247 3,5 C 5,4 C
14.03.2012 06:12 7,3 C 77 % 1029,4 hPa 0,0 l/m 11,9 km/h (2 Bft) W-NW 292 3,5 C 5,1 C
14.03.2012 06:17 7,3 C 77 % 1029,4 hPa 0,0 l/m 18,7 km/h (3 Bft) W 270 3,5 C 4,1 C
14.03.2012 06:22 7,3 C 77 % 1029,6 hPa 0,0 l/m 6,1 km/h (2 Bft) N-NW 337 3,5 C 6,3 C
14.03.2012 06:27 7,3 C 77 % 1029,4 hPa 0,0 l/m 9,7 km/h (2 Bft) W 270 3,5 C 5,5 C
14.03.2012 06:32 7,3 C 77 % 1029,4 hPa 0,0 l/m 9,7 km/h (2 Bft) W-NW 292 3,5 C 5,5 C
14.03.2012 06:37 7,3 C 77 % 1029,6 hPa 0,0 l/m 15,1 km/h (3 Bft) W-NW 292 3,5 C 4,6 C
14.03.2012 06:42 7,3 C 77 % 1029,5 hPa 0,0 l/m 14,4 km/h (3 Bft) W 270 3,5 C 4,7 C
14.03.2012 06:47 7,3 C 77 % 1029,6 hPa 0,0 l/m 6,8 km/h (2 Bft) W-NW 292 3,5 C 6,1 C
14.03.2012 06:52 7,3 C 77 % 1029,6 hPa 0,0 l/m 11,2 km/h (2 Bft) W 270 3,5 C 5,2 C
14.03.2012 06:57 7,3 C 77 % 1029,6 hPa 0,0 l/m 11,2 km/h (2 Bft) W 270 3,5 C 5,2 C
14.03.2012 07:02 7,3 C 77 % 1029,4 hPa 0,0 l/m 25,9 km/h (4 Bft) W-NW 292 3,5 C 3,4 C
14.03.2012 07:07 7,3 C 77 % 1029,5 hPa 0,0 l/m 10,8 km/h (2 Bft) W 270 3,5 C 5,3 C
14.03.2012 07:12 7,3 C 77 % 1029,7 hPa 0,0 l/m 10,4 km/h (2 Bft) W 270 3,5 C 5,3 C
14.03.2012 07:17 7,2 C 77 % 1029,4 hPa 0,0 l/m 16,6 km/h (3 Bft) NW 315 3,4 C 4,2 C
14.03.2012 07:22 7,2 C 77 % 1029,5 hPa 0,0 l/m 11,2 km/h (2 Bft) W 270 3,4 C 5,1 C
14.03.2012 07:27 7,2 C 77 % 1029,6 hPa 0,0 l/m 14,4 km/h (3 Bft) W-NW 292 3,4 C 4,5 C
14.03.2012 07:32 7,2 C 77 % 1029,6 hPa 0,0 l/m 11,2 km/h (2 Bft) N-NW 337 3,4 C 5,1 C
14.03.2012 07:37 7,2 C 77 % 1029,4 hPa 0,0 l/m 10,8 km/h (2 Bft) W 270 3,4 C 5,1 C
14.03.2012 07:42 7,2 C 77 % 1029,6 hPa 0,0 l/m 10,4 km/h (2 Bft) W 270 3,4 C 5,2 C
14.03.2012 07:47 7,2 C 77 % 1029,7 hPa 0,0 l/m 8,6 km/h (2 Bft) N-NO 22 3,4 C 5,6 C
14.03.2012 07:52 7,2 C 77 % 1029,7 hPa 0,0 l/m 15,8 km/h (3 Bft) W-NW 292 3,4 C 4,4 C
14.03.2012 07:57 7,2 C 77 % 1029,8 hPa 0,0 l/m 11,9 km/h (2 Bft) W-NW 292 3,4 C 4,9 C
14.03.2012 08:02 7,2 C 77 % 1029,7 hPa 0,0 l/m 9,7 km/h (2 Bft) W 270 3,4 C 5,3 C
14.03.2012 08:07 7,3 C 77 % 1029,7 hPa 0,0 l/m 6,8 km/h (2 Bft) NW 315 3,5 C 6,1 C
14.03.2012 08:12 7,3 C 77 % 1029,7 hPa 0,0 l/m 12,6 km/h (3 Bft) W 270 3,5 C 4,9 C
14.03.2012 08:17 7,3 C 77 % 1029,8 hPa 0,0 l/m 14,4 km/h (3 Bft) W-NW 292 3,5 C 4,7 C
14.03.2012 08:22 7,3 C 77 % 1029,9 hPa 0,0 l/m 11,9 km/h (2 Bft) W-NW 292 3,5 C 5,1 C
14.03.2012 08:27 7,3 C 76 % 1029,9 hPa 0,0 l/m 19,1 km/h (3 Bft) W 270 3,4 C 4,1 C
14.03.2012 08:32 7,3 C 76 % 1029,8 hPa 0,0 l/m 8,3 km/h (2 Bft) W 270 3,4 C 5,8 C
14.03.2012 08:37 7,4 C 76 % 1029,8 hPa 0,0 l/m 7,6 km/h (2 Bft) W-NW 292 3,5 C 6,0 C
14.03.2012 08:42 7,4 C 76 % 1029,8 hPa 0,0 l/m 10,8 km/h (2 Bft) W-NW 292 3,5 C 5,4 C
14.03.2012 08:47 7,4 C 76 % 1029,7 hPa 0,0 l/m 5,4 km/h (1 Bft) S-SO 157 3,5 C 6,7 C
14.03.2012 08:52 7,4 C 76 % 1029,7 hPa 0,0 l/m 11,9 km/h (2 Bft) W 270 3,5 C 5,2 C
14.03.2012 08:57 7,4 C 76 % 1029,7 hPa 0,0 l/m 11,2 km/h (2 Bft) W-NW 292 3,5 C 5,3 C
14.03.2012 09:02 7,4 C 75 % 1029,8 hPa 0,0 l/m 10,1 km/h (2 Bft) W 270 3,3 C 5,5 C
14.03.2012 09:07 7,5 C 75 % 1029,8 hPa 0,0 l/m 12,2 km/h (2 Bft) W 270 3,4 C 5,3 C
14.03.2012 09:12 7,5 C 75 % 1030,0 hPa 0,0 l/m 11,2 km/h (2 Bft) NW 315 3,4 C 5,4 C
14.03.2012 09:17 7,5 C 75 % 1030,1 hPa 0,0 l/m 15,8 km/h (3 Bft) W 270 3,4 C 4,7 C
14.03.2012 09:22 7,5 C 76 % 1030,0 hPa 0,0 l/m 10,1 km/h (2 Bft) NW 315 3,5 C 5,6 C
14.03.2012 09:27 7,5 C 75 % 1030,2 hPa 0,0 l/m 11,2 km/h (2 Bft) W-NW 292 3,4 C 5,4 C
14.03.2012 09:32 7,5 C 75 % 1030,2 hPa 0,0 l/m 13,7 km/h (3 Bft) W 270 3,4 C 5,0 C
14.03.2012 09:37 7,5 C 75 % 1030,1 hPa 0,0 l/m 16,9 km/h (3 Bft) NW 315 3,4 C 4,6 C
14.03.2012 09:42 7,5 C 75 % 1030,1 hPa 0,0 l/m 11,9 km/h (2 Bft) W 270 3,4 C 5,3 C
14.03.2012 09:47 7,6 C 75 % 1030,1 hPa 0,0 l/m 11,9 km/h (2 Bft) W 270 3,5 C 5,4 C
14.03.2012 09:52 7,6 C 75 % 1030,1 hPa 0,0 l/m 15,5 km/h (3 Bft) W-NW 292 3,5 C 4,9 C
14.03.2012 09:57 7,8 C 75 % 1030,1 hPa 0,0 l/m 11,9 km/h (2 Bft) W-SW 247 3,7 C 5,7 C
14.03.2012 10:02 7,8 C 75 % 1030,2 hPa 0,0 l/m 12,2 km/h (2 Bft) W-NW 292 3,7 C 5,6 C
14.03.2012 10:07 7,8 C 75 % 1029,9 hPa 0,0 l/m 8,3 km/h (2 Bft) W 270 3,7 C 6,4 C
14.03.2012 10:12 7,8 C 75 % 1030,0 hPa 0,0 l/m 15,8 km/h (3 Bft) W 270 3,7 C 5,1 C
14.03.2012 10:17 7,9 C 75 % 1030,1 hPa 0,0 l/m 11,9 km/h (2 Bft) W 270 3,7 C 5,8 C
14.03.2012 10:22 7,8 C 75 % 1030,2 hPa 0,0 l/m 11,9 km/h (2 Bft) W-NW 292 3,7 C 5,7 C
14.03.2012 10:27 7,9 C 75 % 1030,3 hPa 0,0 l/m 13,0 km/h (3 Bft) W-NW 292 3,7 C 5,6 C
14.03.2012 10:32 7,9 C 74 % 1030,2 hPa 0,0 l/m 8,3 km/h (2 Bft) W-NW 292 3,6 C 6,5 C
14.03.2012 10:37 7,8 C 75 % 1030,3 hPa 0,0 l/m 8,6 km/h (2 Bft) NW 315 3,7 C 6,3 C
14.03.2012 10:42 7,9 C 74 % 1030,2 hPa 0,0 l/m 5,0 km/h (1 Bft) W 270 3,6 C 7,4 C
14.03.2012 10:47 7,9 C 74 % 1030,4 hPa 0,0 l/m 16,9 km/h (3 Bft) W 270 3,6 C 5,1 C
14.03.2012 10:52 7,9 C 75 % 1030,2 hPa 0,0 l/m 8,3 km/h (2 Bft) W 270 3,7 C 6,5 C
14.03.2012 10:57 7,9 C 75 % 1030,4 hPa 0,0 l/m 7,9 km/h (2 Bft) NW 315 3,7 C 6,6 C
14.03.2012 11:02 7,9 C 75 % 1030,5 hPa 0,0 l/m 17,3 km/h (3 Bft) W-NW 292 3,7 C 5,0 C
14.03.2012 11:07 7,9 C 75 % 1030,4 hPa 0,0 l/m 4,3 km/h (1 Bft) NW 315 3,7 C 7,9 C
14.03.2012 11:12 7,9 C 75 % 1030,5 hPa 0,0 l/m 6,5 km/h (2 Bft) W-NW 292 3,7 C 6,9 C
14.03.2012 11:17 7,9 C 75 % 1030,4 hPa 0,0 l/m 9,0 km/h (2 Bft) W 270 3,7 C 6,3 C
14.03.2012 11:22 8,0 C 75 % 1030,5 hPa 0,0 l/m 16,6 km/h (3 Bft) NW 315 3,8 C 5,2 C
14.03.2012 11:27 8,0 C 74 % 1030,4 hPa 0,0 l/m 9,7 km/h (2 Bft) W-NW 292 3,7 C 6,3 C
14.03.2012 11:32 8,1 C 74 % 1030,5 hPa 0,0 l/m 10,8 km/h (2 Bft) W-SW 247 3,8 C 6,2 C
14.03.2012 11:37 8,1 C 74 % 1030,4 hPa 0,0 l/m 6,5 km/h (2 Bft) W-NW 292 3,8 C 7,1 C
14.03.2012 11:42 8,2 C 74 % 1030,5 hPa 0,0 l/m 5,4 km/h (1 Bft) W-NW 292 3,8 C 7,6 C
14.03.2012 11:47 8,2 C 74 % 1030,5 hPa 0,0 l/m 7,2 km/h (2 Bft) W-NW 292 3,8 C 7,1 C
14.03.2012 11:52 8,3 C 74 % 1030,5 hPa 0,0 l/m 10,1 km/h (2 Bft) W 270 3,9 C 6,6 C
14.03.2012 11:57 8,3 C 74 % 1030,5 hPa 0,0 l/m 13,3 km/h (3 Bft) W-NW 292 3,9 C 6,1 C
14.03.2012 12:02 8,3 C 74 % 1030,6 hPa 0,0 l/m 5,0 km/h (1 Bft) N-NW 337 3,9 C 7,8 C
14.03.2012 12:07 8,4 C 74 % 1030,6 hPa 0,0 l/m 7,6 km/h (2 Bft) N 360 4,0 C 7,2 C
14.03.2012 12:12 8,3 C 74 % 1030,7 hPa 0,0 l/m 7,9 km/h (2 Bft) N 360 3,9 C 7,0 C
14.03.2012 12:17 8,3 C 74 % 1030,7 hPa 0,0 l/m 10,1 km/h (2 Bft) W-NW 292 3,9 C 6,6 C
14.03.2012 12:22 8,4 C 74 % 1030,4 hPa 0,0 l/m 11,5 km/h (2 Bft) W 270 4,0 C 6,5 C
14.03.2012 12:27 8,4 C 74 % 1030,5 hPa 0,0 l/m 7,6 km/h (2 Bft) N 360 4,0 C 7,2 C
14.03.2012 12:32 8,5 C 74 % 1030,6 hPa 0,0 l/m 6,5 km/h (2 Bft) NW 315 4,1 C 7,6 C
14.03.2012 12:37 8,5 C 74 % 1030,7 hPa 0,0 l/m 2,5 km/h (1 Bft) NW 315 4,1 C 8,5 C
14.03.2012 12:42 8,5 C 74 % 1030,7 hPa 0,0 l/m 4,7 km/h (1 Bft) NW 315 4,1 C 8,2 C
14.03.2012 12:47 8,5 C 74 % 1030,8 hPa 0,0 l/m 7,9 km/h (2 Bft) NW 315 4,1 C 7,3 C
14.03.2012 12:52 8,5 C 73 % 1030,7 hPa 0,0 l/m 20,9 km/h (4 Bft) N-NW 337 3,9 C 5,4 C
14.03.2012 12:57 8,5 C 74 % 1030,7 hPa 0,0 l/m 11,5 km/h (2 Bft) W-NW 292 4,1 C 6,6 C
14.03.2012 13:02 8,6 C 73 % 1030,6 hPa 0,0 l/m 8,3 km/h (2 Bft) W-NW 292 4,0 C 7,3 C
14.03.2012 13:07 8,6 C 73 % 1030,6 hPa 0,0 l/m 7,2 km/h (2 Bft) N-NO 22 4,0 C 7,5 C
14.03.2012 13:12 8,6 C 73 % 1030,6 hPa 0,0 l/m 3,6 km/h (1 Bft) NW 315 4,0 C 8,6 C
14.03.2012 13:17 8,6 C 73 % 1030,6 hPa 0,0 l/m 10,4 km/h (2 Bft) N-NW 337 4,0 C 6,9 C
14.03.2012 13:22 8,7 C 73 % 1030,5 hPa 0,0 l/m 8,3 km/h (2 Bft) NW 315 4,1 C 7,4 C
14.03.2012 13:27 8,7 C 73 % 1030,5 hPa 0,0 l/m 10,1 km/h (2 Bft) N-NW 337 4,1 C 7,1 C
14.03.2012 13:32 8,8 C 73 % 1030,4 hPa 0,0 l/m 6,5 km/h (2 Bft) W-NW 292 4,2 C 8,0 C
14.03.2012 13:37 8,9 C 74 % 1030,4 hPa 0,0 l/m 4,7 km/h (1 Bft) N-NW 337 4,5 C 8,6 C
14.03.2012 13:42 8,9 C 73 % 1030,6 hPa 0,0 l/m 10,4 km/h (2 Bft) NW 315 4,3 C 7,2 C
14.03.2012 13:47 8,8 C 73 % 1030,4 hPa 0,0 l/m 12,2 km/h (2 Bft) NW 315 4,2 C 6,8 C
14.03.2012 13:52 8,8 C 73 % 1030,4 hPa 0,0 l/m 14,0 km/h (3 Bft) W 270 4,2 C 6,6 C
14.03.2012 13:57 8,8 C 73 % 1030,2 hPa 0,0 l/m 6,5 km/h (2 Bft) W-SW 247 4,2 C 8,0 C
14.03.2012 14:02 8,8 C 73 % 1030,4 hPa 0,0 l/m 2,5 km/h (1 Bft) W 270 4,2 C 8,8 C
14.03.2012 14:07 8,8 C 74 % 1030,5 hPa 0,0 l/m 5,0 km/h (1 Bft) N-NO 22 4,4 C 8,4 C
14.03.2012 14:12 8,7 C 73 % 1030,3 hPa 0,0 l/m 15,8 km/h (3 Bft) NW 315 4,1 C 6,2 C
14.03.2012 14:17 8,7 C 74 % 1030,4 hPa 0,0 l/m 1,4 km/h (1 Bft) N 360 4,3 C 8,7 C
14.03.2012 14:22 8,6 C 74 % 1030,4 hPa 0,0 l/m 5,0 km/h (1 Bft) W-NW 292 4,2 C 8,2 C
14.03.2012 14:27 8,6 C 74 % 1030,6 hPa 0,0 l/m 6,5 km/h (2 Bft) N-NW 337 4,2 C 7,7 C
14.03.2012 14:32 8,7 C 74 % 1030,3 hPa 0,0 l/m 11,9 km/h (2 Bft) N-NW 337 4,3 C 6,8 C
14.03.2012 14:37 8,7 C 74 % 1030,5 hPa 0,0 l/m 2,2 km/h (1 Bft) N 360 4,3 C 8,7 C
14.03.2012 14:42 8,7 C 74 % 1030,4 hPa 0,0 l/m 6,1 km/h (2 Bft) N-NW 337 4,3 C 7,9 C
14.03.2012 14:47 8,7 C 74 % 1030,4 hPa 0,0 l/m 2,2 km/h (1 Bft) O-NO 67 4,3 C 8,7 C
14.03.2012 14:52 8,7 C 74 % 1030,3 hPa 0,0 l/m 2,5 km/h (1 Bft) SW 225 4,3 C 8,7 C
14.03.2012 14:57 8,6 C 74 % 1030,4 hPa 0,0 l/m 2,5 km/h (1 Bft) W 270 4,2 C 8,6 C
14.03.2012 15:02 8,6 C 74 % 1030,4 hPa 0,0 l/m 3,2 km/h (1 Bft) W 270 4,2 C 8,6 C
14.03.2012 15:07 8,6 C 74 % 1030,4 hPa 0,0 l/m 11,2 km/h (2 Bft) N-NW 337 4,2 C 6,7 C
14.03.2012 15:12 8,7 C 74 % 1030,3 hPa 0,0 l/m 2,2 km/h (1 Bft) NW 315 4,3 C 8,7 C
14.03.2012 15:17 8,7 C 74 % 1030,2 hPa 0,0 l/m 1,8 km/h (1 Bft) NO 45 4,3 C 8,7 C
14.03.2012 15:22 8,7 C 74 % 1030,4 hPa 0,0 l/m 11,2 km/h (2 Bft) NW 315 4,3 C 6,9 C
14.03.2012 15:27 8,8 C 74 % 1030,4 hPa 0,0 l/m 5,0 km/h (1 Bft) N-NW 337 4,4 C 8,4 C
14.03.2012 15:32 8,8 C 74 % 1030,4 hPa 0,0 l/m 6,8 km/h (2 Bft) N-NW 337 4,4 C 7,9 C
14.03.2012 15:37 8,8 C 74 % 1030,3 hPa 0,0 l/m 6,5 km/h (2 Bft) N 360 4,4 C 8,0 C
14.03.2012 15:42 8,7 C 74 % 1030,4 hPa 0,0 l/m 3,6 km/h (1 Bft) W-NW 292 4,3 C 8,7 C
14.03.2012 15:47 8,7 C 74 % 1030,3 hPa 0,0 l/m 2,2 km/h (1 Bft) W 270 4,3 C 8,7 C
14.03.2012 15:52 8,7 C 74 % 1030,4 hPa 0,0 l/m 5,8 km/h (2 Bft) N-NW 337 4,3 C 8,0 C
14.03.2012 15:57 8,7 C 75 % 1030,2 hPa 0,0 l/m 5,4 km/h (1 Bft) W-NW 292 4,5 C 8,2 C
14.03.2012 16:02 8,7 C 75 % 1030,3 hPa 0,0 l/m 5,0 km/h (1 Bft) N-NW 337 4,5 C 8,3 C
14.03.2012 16:07 8,8 C 75 % 1030,2 hPa 0,0 l/m 5,4 km/h (1 Bft) NW 315 4,6 C 8,3 C
14.03.2012 16:12 8,8 C 75 % 1030,2 hPa 0,0 l/m 4,7 km/h (1 Bft) N-NW 337 4,6 C 8,5 C
14.03.2012 16:17 8,8 C 75 % 1030,4 hPa 0,0 l/m 0,0 km/h (0 Bft) W-NW 292 4,6 C 8,8 C
14.03.2012 16:22 8,8 C 75 % 1030,2 hPa 0,0 l/m 2,5 km/h (1 Bft) NW 315 4,6 C 8,8 C
14.03.2012 16:27 8,8 C 75 % 1030,3 hPa 0,0 l/m 2,2 km/h (1 Bft) W-NW 292 4,6 C 8,8 C
14.03.2012 16:32 8,8 C 75 % 1030,3 hPa 0,0 l/m 5,4 km/h (1 Bft) W-NW 292 4,6 C 8,3 C
14.03.2012 16:37 8,8 C 75 % 1030,1 hPa 0,0 l/m 4,3 km/h (1 Bft) W-NW 292 4,6 C 8,8 C
14.03.2012 16:42 8,8 C 75 % 1030,2 hPa 0,0 l/m 9,7 km/h (2 Bft) W-NW 292 4,6 C 7,3 C
14.03.2012 16:47 8,9 C 75 % 1030,3 hPa 0,0 l/m 3,6 km/h (1 Bft) W-NW 292 4,7 C 8,9 C
14.03.2012 16:52 8,8 C 75 % 1030,1 hPa 0,0 l/m 1,8 km/h (1 Bft) W 270 4,6 C 8,8 C
14.03.2012 16:57 8,9 C 75 % 1030,2 hPa 0,0 l/m 0,0 km/h (0 Bft) W 270 4,7 C 8,9 C
14.03.2012 17:02 8,9 C 75 % 1030,2 hPa 0,0 l/m 3,2 km/h (1 Bft) W-NW 292 4,7 C 8,9 C
14.03.2012 17:07 8,9 C 76 % 1030,2 hPa 0,0 l/m 3,6 km/h (1 Bft) W 270 4,9 C 8,9 C
14.03.2012 17:12 8,8 C 76 % 1030,2 hPa 0,0 l/m 2,9 km/h (1 Bft) W 270 4,8 C 8,8 C
14.03.2012 17:17 8,8 C 76 % 1030,3 hPa 0,0 l/m 2,5 km/h (1 Bft) W 270 4,8 C 8,8 C
14.03.2012 17:22 8,8 C 76 % 1030,5 hPa 0,0 l/m 1,8 km/h (1 Bft) W 270 4,8 C 8,8 C
14.03.2012 17:27 8,8 C 76 % 1030,4 hPa 0,0 l/m 2,9 km/h (1 Bft) W 270 4,8 C 8,8 C
14.03.2012 17:32 8,7 C 76 % 1030,7 hPa 0,0 l/m 3,2 km/h (1 Bft) W 270 4,7 C 8,7 C
14.03.2012 17:37 8,7 C 76 % 1030,6 hPa 0,0 l/m 3,2 km/h (1 Bft) W 270 4,7 C 8,7 C
14.03.2012 17:42 8,6 C 76 % 1030,7 hPa 0,0 l/m 2,5 km/h (1 Bft) W 270 4,6 C 8,6 C
14.03.2012 17:47 8,6 C 77 % 1030,5 hPa 0,0 l/m 0,0 km/h (0 Bft) W-NW 292 4,8 C 8,6 C
14.03.2012 17:52 8,6 C 77 % 1030,5 hPa 0,0 l/m 2,9 km/h (1 Bft) W-NW 292 4,8 C 8,6 C
14.03.2012 17:57 8,5 C 77 % 1030,7 hPa 0,0 l/m 0,0 km/h (0 Bft) W-NW 292 4,7 C 8,5 C
14.03.2012 18:02 8,5 C 77 % 1030,9 hPa 0,0 l/m 0,0 km/h (0 Bft) W 270 4,7 C 8,5 C
14.03.2012 18:07 8,5 C 77 % 1030,9 hPa 0,0 l/m 1,1 km/h (1 Bft) W-NW 292 4,7 C 8,5 C
14.03.2012 18:12 8,5 C 77 % 1031,0 hPa 0,0 l/m 2,2 km/h (1 Bft) W-NW 292 4,7 C 8,5 C
14.03.2012 18:17 8,4 C 77 % 1030,8 hPa 0,0 l/m 0,0 km/h (0 Bft) W 270 4,6 C 8,4 C
14.03.2012 18:22 8,4 C 77 % 1030,9 hPa 0,0 l/m 2,5 km/h (1 Bft) W-NW 292 4,6 C 8,4 C
14.03.2012 18:27 8,4 C 77 % 1030,7 hPa 0,0 l/m 0,0 km/h (0 Bft) W-NW 292 4,6 C 8,4 C
14.03.2012 18:32 8,4 C 77 % 1030,8 hPa 0,0 l/m 0,0 km/h (0 Bft) W-NW 292 4,6 C 8,4 C
14.03.2012 18:37 8,4 C 77 % 1030,6 hPa 0,0 l/m 2,5 km/h (1 Bft) W-SW 247 4,6 C 8,4 C
14.03.2012 18:42 8,4 C 77 % 1030,6 hPa 0,0 l/m 3,6 km/h (1 Bft) W-SW 247 4,6 C 8,4 C
14.03.2012 18:47 8,4 C 77 % 1030,5 hPa 0,0 l/m 5,8 km/h (2 Bft) W-SW 247 4,6 C 7,7 C
14.03.2012 18:52 8,4 C 77 % 1030,5 hPa 0,0 l/m 7,9 km/h (2 Bft) W 270 4,6 C 7,2 C
14.03.2012 18:57 8,3 C 77 % 1030,3 hPa 0,0 l/m 7,2 km/h (2 Bft) W 270 4,5 C 7,2 C
14.03.2012 19:02 8,3 C 77 % 1030,5 hPa 0,0 l/m 4,0 km/h (1 Bft) SW 225 4,5 C 8,3 C
14.03.2012 19:07 8,3 C 77 % 1030,5 hPa 0,0 l/m 2,9 km/h (1 Bft) W-NW 292 4,5 C 8,3 C
14.03.2012 19:12 8,3 C 77 % 1030,6 hPa 0,0 l/m 1,4 km/h (1 Bft) W-NW 292 4,5 C 8,3 C
14.03.2012 19:17 8,3 C 77 % 1030,6 hPa 0,0 l/m 5,8 km/h (2 Bft) W 270 4,5 C 7,6 C
14.03.2012 19:22 8,3 C 77 % 1030,6 hPa 0,0 l/m 0,0 km/h (0 Bft) W-NW 292 4,5 C 8,3 C
14.03.2012 19:27 8,2 C 77 % 1030,7 hPa 0,0 l/m 0,0 km/h (0 Bft) W 270 4,4 C 8,2 C
14.03.2012 19:32 8,2 C 77 % 1030,6 hPa 0,0 l/m 4,0 km/h (1 Bft) W-SW 247 4,4 C 8,2 C
14.03.2012 19:37 8,2 C 77 % 1030,8 hPa 0,0 l/m 0,0 km/h (0 Bft) W 270 4,4 C 8,2 C
14.03.2012 19:42 8,2 C 77 % 1030,9 hPa 0,0 l/m 2,2 km/h (1 Bft) W 270 4,4 C 8,2 C
14.03.2012 19:47 8,2 C 77 % 1031,1 hPa 0,0 l/m 3,6 km/h (1 Bft) W 270 4,4 C 8,2 C
14.03.2012 19:52 8,1 C 78 % 1031,1 hPa 0,0 l/m 2,2 km/h (1 Bft) W 270 4,5 C 8,1 C
14.03.2012 19:57 8,1 C 78 % 1031,2 hPa 0,0 l/m 2,2 km/h (1 Bft) W 270 4,5 C 8,1 C
14.03.2012 20:02 8,1 C 78 % 1031,1 hPa 0,0 l/m 0,0 km/h (0 Bft) W 270 4,5 C 8,1 C
14.03.2012 20:07 8,1 C 78 % 1031,3 hPa 0,0 l/m 0,0 km/h (0 Bft) W 270 4,5 C 8,1 C
14.03.2012 20:12 8,1 C 78 % 1031,2 hPa 0,0 l/m 2,5 km/h (1 Bft) W-NW 292 4,5 C 8,1 C
14.03.2012 20:17 8,1 C 78 % 1031,2 hPa 0,0 l/m 0,0 km/h (0 Bft) W 270 4,5 C 8,1 C
14.03.2012 20:22 8,1 C 78 % 1031,3 hPa 0,0 l/m 1,4 km/h (1 Bft) W 270 4,5 C 8,1 C
14.03.2012 20:27 8,1 C 78 % 1031,3 hPa 0,0 l/m 0,0 km/h (0 Bft) W 270 4,5 C 8,1 C
14.03.2012 20:32 8,1 C 78 % 1031,5 hPa 0,0 l/m 0,0 km/h (0 Bft) W 270 4,5 C 8,1 C
14.03.2012 20:37 8,0 C 78 % 1031,5 hPa 0,0 l/m 0,0 km/h (0 Bft) W 270 4,4 C 8,0 C
14.03.2012 20:42 8,0 C 78 % 1031,5 hPa 0,0 l/m 1,8 km/h (1 Bft) W 270 4,4 C 8,0 C
14.03.2012 20:47 7,9 C 78 % 1031,4 hPa 0,0 l/m 0,0 km/h (0 Bft) W-NW 292 4,3 C 7,9 C
14.03.2012 20:52 7,9 C 78 % 1031,5 hPa 0,0 l/m 2,9 km/h (1 Bft) W-NW 292 4,3 C 7,9 C
14.03.2012 20:57 7,9 C 78 % 1031,5 hPa 0,0 l/m 0,0 km/h (0 Bft) W 270 4,3 C 7,9 C
14.03.2012 21:02 7,9 C 78 % 1031,6 hPa 0,0 l/m 0,0 km/h (0 Bft) W 270 4,3 C 7,9 C
14.03.2012 21:07 7,9 C 78 % 1031,6 hPa 0,0 l/m 0,0 km/h (0 Bft) W-NW 292 4,3 C 7,9 C
14.03.2012 21:12 7,9 C 79 % 1031,6 hPa 0,0 l/m 0,0 km/h (0 Bft) W 270 4,5 C 7,9 C
14.03.2012 21:17 7,9 C 79 % 1031,6 hPa 0,0 l/m 0,0 km/h (0 Bft) W 270 4,5 C 7,9 C
14.03.2012 21:22 7,9 C 79 % 1031,6 hPa 0,0 l/m 1,8 km/h (1 Bft) W 270 4,5 C 7,9 C
14.03.2012 21:27 7,9 C 79 % 1031,5 hPa 0,0 l/m 3,2 km/h (1 Bft) W-NW 292 4,5 C 7,9 C
14.03.2012 21:32 7,9 C 79 % 1031,4 hPa 0,0 l/m 4,0 km/h (1 Bft) W 270 4,5 C 7,9 C
14.03.2012 21:37 7,9 C 79 % 1031,4 hPa 0,0 l/m 4,7 km/h (1 Bft) W-NW 292 4,5 C 7,5 C
14.03.2012 21:42 7,8 C 79 % 1031,4 hPa 0,0 l/m 3,2 km/h (1 Bft) W 270 4,4 C 7,8 C
14.03.2012 21:47 7,8 C 80 % 1031,4 hPa 0,0 l/m 4,0 km/h (1 Bft) NW 315 4,6 C 7,8 C
14.03.2012 21:52 7,8 C 80 % 1031,3 hPa 0,0 l/m 4,3 km/h (1 Bft) W-NW 292 4,6 C 7,8 C
14.03.2012 21:57 7,8 C 80 % 1031,4 hPa 0,0 l/m 4,3 km/h (1 Bft) W-NW 292 4,6 C 7,8 C
14.03.2012 22:02 7,8 C 80 % 1031,5 hPa 0,0 l/m 4,0 km/h (1 Bft) W 270 4,6 C 7,8 C
14.03.2012 22:07 7,8 C 80 % 1031,4 hPa 0,0 l/m 0,0 km/h (0 Bft) W-SW 247 4,6 C 7,8 C
14.03.2012 22:12 7,8 C 80 % 1031,5 hPa 0,0 l/m 2,5 km/h (1 Bft) W 270 4,6 C 7,8 C
14.03.2012 22:17 7,6 C 80 % 1031,5 hPa 0,0 l/m 4,7 km/h (1 Bft) W-NW 292 4,4 C 7,1 C
14.03.2012 22:22 7,6 C 80 % 1031,6 hPa 0,0 l/m 6,1 km/h (2 Bft) W 270 4,4 C 6,7 C
14.03.2012 22:27 7,6 C 80 % 1031,6 hPa 0,0 l/m 4,0 km/h (1 Bft) SW 225 4,4 C 7,6 C
14.03.2012 22:32 7,6 C 80 % 1031,6 hPa 0,0 l/m 3,2 km/h (1 Bft) W 270 4,4 C 7,6 C
14.03.2012 22:37 7,6 C 80 % 1031,5 hPa 0,0 l/m 4,3 km/h (1 Bft) W 270 4,4 C 7,6 C
14.03.2012 22:42 7,6 C 80 % 1031,3 hPa 0,0 l/m 3,6 km/h (1 Bft) W-NW 292 4,4 C 7,6 C
14.03.2012 22:47 7,6 C 80 % 1031,4 hPa 0,0 l/m 3,2 km/h (1 Bft) W-SW 247 4,4 C 7,6 C
14.03.2012 22:52 7,6 C 80 % 1031,5 hPa 0,0 l/m 2,5 km/h (1 Bft) W 270 4,4 C 7,6 C
14.03.2012 22:57 7,6 C 80 % 1031,5 hPa 0,0 l/m 3,2 km/h (1 Bft) W 270 4,4 C 7,6 C
14.03.2012 23:02 7,6 C 80 % 1031,4 hPa 0,0 l/m 6,1 km/h (2 Bft) W-SW 247 4,4 C 6,7 C
14.03.2012 23:07 7,6 C 80 % 1031,5 hPa 0,0 l/m 1,1 km/h (1 Bft) W-SW 247 4,4 C 7,6 C
14.03.2012 23:12 7,6 C 80 % 1031,5 hPa 0,0 l/m 5,0 km/h (1 Bft) W 270 4,4 C 7,0 C
14.03.2012 23:17 7,6 C 80 % 1031,5 hPa 0,0 l/m 1,8 km/h (1 Bft) W-NW 292 4,4 C 7,6 C
14.03.2012 23:22 7,5 C 80 % 1031,5 hPa 0,0 l/m 10,1 km/h (2 Bft) W-SW 247 4,3 C 5,6 C
14.03.2012 23:27 7,5 C 80 % 1031,5 hPa 0,0 l/m 1,4 km/h (1 Bft) W-NW 292 4,3 C 7,5 C
14.03.2012 23:32 7,5 C 80 % 1031,6 hPa 0,0 l/m 3,6 km/h (1 Bft) W-SW 247 4,3 C 7,5 C
14.03.2012 23:37 7,5 C 80 % 1031,5 hPa 0,0 l/m 4,7 km/h (1 Bft) NW 315 4,3 C 7,0 C
14.03.2012 23:42 7,5 C 80 % 1031,6 hPa 0,0 l/m 2,2 km/h (1 Bft) W-NW 292 4,3 C 7,5 C
14.03.2012 23:47 7,4 C 80 % 1031,6 hPa 0,0 l/m 4,0 km/h (1 Bft) W-NW 292 4,2 C 7,4 C
14.03.2012 23:52 7,4 C 80 % 1031,7 hPa 0,0 l/m 0,0 km/h (0 Bft) W-NW 292 4,2 C 7,4 C
14.03.2012 23:57 7,4 C 80 % 1031,5 hPa 0,0 l/m 1,8 km/h (1 Bft) W 270 4,2 C 7,4 C
_ Min-Zeit 04:57 12:52 05:12 - 16:17 - - 09:02 07:02
Minimum _ 7,2 C 73 % 1029,3 hPa - 0,0 km/h (0 Bft) - - 3,3 C 3,4 C
_ Max-Zeit 13:37 21:47 23:52 00:02 07:02 - - 17:07 16:47
Maximum _ 8,9 C 80 % 1031,7 hPa 0,0 l/m 25,9 km/h
W-NW (4 Bft)
- - 4,9 C 8,9 C
Durchschnitt _ 7,9 C 76 % 1030,4 hPa #0,0 l/m 7,1 km/h (2 Bft) W - 4,0 C 6,8 C
(c) by David Heller